Location: Azul
(36.7830°S, 59.8500°W)
Time: 11:17:34
(UTC-03:00)

BEESAT 3 - Pass Details

Date: 24 October 2021
Orbit: 477 x 511 km, 64.9° (Epoch: 28 November)

Event Time Altitude Azimuth Distance (km) Brightness Sun altitude
Rises 20:26:31 0° 296° (WNW) 2,605 ? -12.4°
Reaches altitude 10° 20:29:10 10° 278° (W) 1,722 ? -12.9°
Maximum altitude 20:31:59 19° 231° (SW) 1,250 ? -13.4°
Drops below altitude 10° 20:34:48 10° 183° (S) 1,721 ? -13.9°
Sets 20:37:27 0° 165° (SSE) 2,604 ? -14.4°
